Location: Aalen
(48.8330°N, 10.1000°E)
Time: 22:06:10
(UTC+01:00)

BlueWalker 3 - Pass Details

Date: 05 December 2022
Orbit: 499 x 517 km, 53.2° (Epoch: 04 February)

Event Time Altitude Azimuth Distance (km) Brightness Sun altitude
Rises 19:23:28 0° 295° (WNW) 2,626 6.5 -28.6°
Reaches altitude 10° 19:25:41 10° 294° (WNW) 1,734 5.4 -28.9°
Enters shadow 19:27:30 26° 291° (WNW) 1,030 4.0 -29.2°
